Tracking 30107 objects as of 25-Jan-2025
HD Live streaming from Space Station
objects crossing your sky now

COSMOS 2340

Track COSMOS 2340 now!
COSMOS 2340 is classified as:


NORAD ID: 24761
Int'l Code: 1997-015A
Perigee: 2,534.7 km
Apogee: 37,883.7 km
Inclination: 65.2 °
Period: 718.8 minutes
Semi major axis: 26580 km
RCS: 6.3095 m2 (large)
Launch date: April 9, 1997
Source: Commonwealth of Independent States (former USSR) (CIS)
Launch site: PLESETSK MISSILE AND SPACE COMPLEX (PKMTR)
Your satellite tracking list
Your tracking list is empty




NASA's NSSDC Master Catalog

Two Line Element Set (TLE):
1 24761U 97015A   25025.26250042 -.00000645  00000-0  00000-0 0  9993
2 24761  65.2482 193.1892 6649488 157.7390 255.5800  2.00339113203652
Source of the keplerian elements: AFSPC